User: anonymous
Location: Unspecified
(0.0000°N, 0.0000°E)
Time: 05:50:38
(UTC+02:00)
Language:

Cosmos 494 Rocket - Orbit

View from above orbital plane
View from above orbital plane
View from above satellite
View from above satellite

Ground track
Ground track

The orbit data is extracted from the following two-line orbital elements,

1 06061U 72043B   14106.19307043  .00000160  00000-0  58830-4 0  4044
2 06061 074.0567 158.3711 0020754 223.0259 191.4266 14.40122354191591
Epoch (UTC): 16 April 2014 04:38:01
Eccentricity: 0.0020754
inclination: 74.0567°
perigee height: 743 km
apogee height: 773 km
right ascension of ascending node: 158.3711°
argument of perigee: 223.0259°
revolutions per day: 14.40122354
mean anomaly at epoch: 191.4266°
orbit number at epoch: 19159

The dashed part of the orbit path shows where the satellite is in the earth's shadow,  

DLR